Погода в Карасуке

Погода в Карасуке : погода сейчас, прогноз погоды и архив. Всё, что Вы хотите узнать о погоде в Карасуке!

Хотите узнать прогноз погоды в Карасуке? Тогда Вам сюда: Погода в Карасуке

Поиск расширенной информации на нашем сайте:

Другие новости

Новости СМИ2

Главная страница сайта

Новости сайта

03.07.2017

Напоминаем, что на нашем специализированном сайте Метеоцентр.Азия вы можете получить высокодетализированные автоматические прогнозы погоды по пунктам России, СНГ и мира в авиационном формате (включающие направление и скорость ветра, видимость, явления погоды, количество и форму облачности, нижнюю и верхнюю границу облачности).

Рекомендуем: контейнер прямоугольный с крышкой по низкой цене

Погода в Карасуке - сегодня

Время (UTC), дата Ветер
(°,м/с) 
Видим.   Явления Облачность Т
(°С)
Тd
(°С)
f(%) Тe
(°С)
Pmin
(гПа)
dP
(гПа)
Po
(мм)
O2
(г/м3)
Тmin Tmax R s Состояние
почвы
21 20.11.17 240 (ЮЗ) 20000 м    10/10 840 м кучево-дожд. 
[Cb cap]
-1.4 -3.9 83 -4  1034.8  -0.4  765  310           
00 21.11.17 240 (ЮЗ) 20000 м    10/10 800 м кучево-дожд. 
[Cb cap]
-1.4 -4.2 81 -5  1034.9  0.1  765  310  -1.7      равномерный
сухой снег
100% 
03 21.11.17 230 (ЮЗ) 20000 м    10/10 800 м 
[Sc]
-2 -4.4 84 -6  1035.3  0.3  765  311  -2         
06 21.11.17 220 (ЮЗ) 20000 м    9/0 средняя 
[Ac cast]
-2.6 -5.2 82 -6  1035.7  0.4  766  312           
09 21.11.17 220 (ЮЗ) 20000 м    9/4 300 м кучево-дожд., средняя 
[Cb cap|Ac cast]
-2.1 -4.8 82 -6  1035.5  -0.2  765  311           
12 21.11.17 220 (ЮЗ) 20000 м    8/8 450 м кучево-дожд. 
[Cb cap]
-2.2 -4.7 83 -6  1035.7  0.2  766  312    -1.4       
15 21.11.17 220 (ЮЗ) 20000 м    ясно 
-4 -6.1 85 -8  1035.7  -0.1  766  314           
18 21.11.17 220 (ЮЗ) 20000 м    ясно 
-4.9 -7.1 85 -9  1035.4  -0.3  765  315           
21 21.11.17 210 (ЮЗ) 20000 м    ясно 
-5.8 -7.5 88 -9  1035.6  0.1  765  316           
00 22.11.17 220 (ЮЗ) 20000 м    ясно 
-7.3 -8.9 88 -10  1035.9  0.3  766  318  -7.3      равномерный
сухой снег
100% 
03 22.11.17 200 (Ю) 20000 м    ясно 
-8.8 -10.3 89 -10  1036.3  0.2  766  320  -9.1         
06 22.11.17 210 (ЮЗ) 20000 м    4/0 верхняя 
[Ci sp]
-4.2 -7.9 75 -6  1036.2  0.2  766  314           
09 22.11.17 180 (Ю) 20000 м    10/0 верхняя 
[Ci sp]
-1.8 -6.6 70 -3  1035.6  -0.5  766  311           
12 22.11.17 170 (Ю) 20000 м    3/0 верхняя 
[Ci sp]
-6.2 -9.1 80 -8  1035.5  -0.3  765  316    -1.8       
15 22.11.17 180 (Ю) 20000 м    6/0 верхняя 
[Ci sp]
-5 -8.1 79 -7  1034.5  -1  765  315           
18 22.11.17 170 (Ю) 20000 м    ясно 
-6.9 -9.5 82 -7  1033.9  -0.7  764  317           
21 22.11.17 150 (ЮВ) 20000 м    ясно 
-8.8 -10.6 87 -9  1033.1  -0.8  763  319           
00 23.11.17 150 (ЮВ) 20000 м    ясно 
-10 -11.5 89 -12  1032.4  -0.8  763  320  -10      равномерный
сухой снег
100% 
03 23.11.17 150 (ЮВ) 20000 м    ясно 
-10 -11.6 88 -12  1033  0.6  763  320  -10.4         
06 23.11.17 190 (Ю) 20000 м    ясно 
-4.3 -8.3 74 -6  1032.6  763  313           
09 23.11.17 160 (Ю) 20000 м    ясно 
-1.9 -7.6 65 -3  1031.8  -0.7  763  310           
12 23.11.17 130 (ЮВ) 20000 м    ясно 
-5.7 -8.6 80 -7  1032.1  0.1  763  315    -1.7       
15 23.11.17 140 (ЮВ) 20000 м    ясно 
-7.7 -9.7 86 -9  1032.3  0.1  763  317           
18 23.11.17 150 (ЮВ) 20000 м    ясно 
-8.8 -10.6 87 -9  1032.4  763  319           
21 23.11.17 130 (ЮВ) 20000 м    ясно 
-9.6 -11.4 87 -9  1032  -0.4  763  320           
Время (UTC), дата Ветер
(°,м/с) 
Видим.   Явления Облачность Т
(°С)
Тd
(°С)
f(%) Тe
(°С)
Pmin
(гПа)
dP
(гПа)
Po
(мм)
O2
(г/м3)
Тmin Tmax R s Состояние
почвы

Для получения пояснительной информации подведите курсор к названию столбца.

ПОГОДА в Карасуке - архив

Всё, что Вы хотите узнать о погоде в Карасуке - удобно и подробно!

Выберите нужную дату (начиная с 1 января 2015* года) и нажмите кнопку "Найти".
Будут отображены архивные сводки погоды по пункту Карасук, начиная с указанной даты.


Отображать данные в формате CSV (для использования в таблицах Excel)


Внимание! Наш архив погоды предназначен исключительно для личного некоммерческого использования в познавательных целях. Если Вам необходимы официальные справки о состоянии погоды (для производственных, юридических, коммерческих и т.п. целей), обращайтесь в органы Росгидромета.

*Примечание: данная дата относится к архиву по метеостанциям СССР (Россия, СНГ, Балтия).
Архив по метеостанциям Зарубежной Европы и Азии (кроме Китая) хранится 10 дней, по другим регионам земного шара (Китай, Африка, Америка, Австралия, Океания) - 1 день.

Карасук - район местоположения метеостанции


Название, широта, долгота, высота метеостанции:
Карасук 53.7°ш. 78.1°д. 115 м над ур. моря [Российская Федерация]

Дополнительная информация

В oтличие oт бoльшинства пoгoдных сайтoв мы публикуем пoдрoбную метеoинфoрмацию в детальнoм прoфессиoнальнoм фoрмате.

Характеристики температуры и влажнoсти вoздуха измеряются на высoте 2 м в тени вдали oт зданий и деревьев.
Скoрoсть ветра измеряется на высoте 10 м (на урoвне рoста челoвека скoрoсть ветра ниже в 1.5-2 раза). Если метеoстанция нахoдится в гoрoде или в лесу, тo скoрoсть ветра занижена на 2-4 м/с пo сравнению с oткрытым местoм. Скoрoсть ветра над акватoриями крупных рек и oзёр, а также на вершинах хoлмoв на 2-5 м/с выше, чем в oбычных услoвиях.
Атмoсфернoе давление в разных тoчках местнoсти мoжет значительнo oтличаться oт давления на метеoстанции, в зависимoсти oт услoвий рельефа (при пoдъёме на 10 м давление пoнижается примернo на 1 мм рт.ст.).